カタログに戻る

TITAN 3C TRANSTAGE DEB

運用中LEO
NORAD 1722·DEBRIS·🇺🇸 United States

打ち上げ Oct 15, 1965 から Cape Canaveral Space Force Station

Loading…

次のパス (今後24時間)

TLE

最新Source: Space-Track

元期: Sep 13, 2026, 09:45 UTC

1 01722U 65082CD  26256.40657571  .00000434  00000-0  74600-4 0  9991
2 01722  32.4172 153.0010 0027480 220.8120 139.0472 14.64135672211941

AllMySatでTITAN 3C TRANSTAGE DEBをリアルタイム追跡

Download on the App Store